EN

Hourly Weather Abryutino

Today, 25 November, Wednesday

Time Temperature Precipitation Wind Pressure Humidity
00:00 -2°C° 0 mm 4 mps 744 mmHg 93%
01:00 -2°C° 0 mm 4 mps 744 mmHg 92%
02:00 -1°C° 0 mm 3 mps 744 mmHg 93%
03:00 -1°C° 0 mm 3 mps 744 mmHg 93%
04:00 -2°C° 0 mm 3 mps 744 mmHg 94%
05:00 -2°C° 0 mm 3 mps 744 mmHg 95%
06:00 -2°C° 0 mm 2 mps 744 mmHg 96%
07:00 -2°C° 0 mm 2 mps 745 mmHg 96%
08:00 -2°C° 0 mm 2 mps 745 mmHg 97%
09:00 -2°C° 0 mm 2 mps 745 mmHg 96%
10:00 -2°C° 0 mm 2 mps 745 mmHg 94%
11:00 -1°C° 0 mm 2 mps 745 mmHg 93%
12:00 -1°C° 0 mm 2 mps 746 mmHg 92%
13:00 -1°C° 0 mm 2 mps 746 mmHg 91%
14:00 -1°C° 0 mm 2 mps 746 mmHg 93%
15:00 -1°C° 0 mm 2 mps 746 mmHg 93%
16:00 -1°C° 0 mm 2 mps 747 mmHg 93%
17:00 -2°C° 0 mm 2 mps 747 mmHg 94%
18:00 -2°C° 0 mm 2 mps 747 mmHg 93%
19:00 0°C° 0 mm 1 mps 748 mmHg 93%
20:00 -1°C° 0 mm 1 mps 748 mmHg 93%
21:00 -1°C° 0 mm 1 mps 748 mmHg 92%
22:00 -1°C° 0 mm 1 mps 748 mmHg 91%
23:00 -1°C° 0 mm 1 mps 749 mmHg 91%

Tomorrow, 26 November, Thursday

Time Temperature Precipitation Wind Pressure Humidity
00:00 -1°C° 0 mm 1 mps 749 mmHg 90%
01:00 -1°C° 0 mm 1 mps 749 mmHg 90%
02:00 -1°C° 0 mm 1 mps 750 mmHg 89%
03:00 -1°C° 0 mm 1 mps 750 mmHg 90%
04:00 -2°C° 0 mm 1 mps 750 mmHg 90%
05:00 -2°C° 0 mm 1 mps 750 mmHg 91%
06:00 -2°C° 0 mm 1 mps 750 mmHg 91%
07:00 -1°C° 0 mm 1 mps 750 mmHg 91%
08:00 -3°C° 0 mm 2 mps 750 mmHg 91%
09:00 -3°C° 0 mm 2 mps 750 mmHg 89%
10:00 -2°C° 0 mm 3 mps 749 mmHg 86%
11:00 -1°C° 0 mm 3 mps 749 mmHg 84%
12:00 -2°C° 0 mm 4 mps 749 mmHg 85%
13:00 -2°C° 0 mm 4 mps 749 mmHg 86%
14:00 -2°C° 0 mm 4 mps 748 mmHg 87%
15:00 -2°C° 0.2 mm 4 mps 748 mmHg 90%
16:00 -1°C° 0.2 mm 4 mps 747 mmHg 93%
17:00 -1°C° 0.2 mm 4 mps 747 mmHg 96%
18:00 -1°C° 0.2 mm 4 mps 746 mmHg 96%
19:00 -1°C° 0.2 mm 4 mps 746 mmHg 97%
20:00 0°C° 0.2 mm 4 mps 746 mmHg 98%
21:00 0°C° 0 mm 4 mps 746 mmHg 97%
22:00 0°C° 0 mm 4 mps 745 mmHg 97%
23:00 +1°C° 0 mm 4 mps 745 mmHg 97%

Day after tomorrow, 27 November, Friday

Time Temperature Precipitation Wind Pressure Humidity
00:00 0°C° 0 mm 5 mps 745 mmHg 96%
01:00 0°C° 0 mm 5 mps 744 mmHg 94%
02:00 0°C° 0 mm 5 mps 744 mmHg 92%
03:00 0°C° 0 mm 5 mps 744 mmHg 90%
04:00 -1°C° 0 mm 5 mps 743 mmHg 89%
05:00 -1°C° 0 mm 5 mps 743 mmHg 87%
06:00 -1°C° 0 mm 5 mps 743 mmHg 88%
07:00 -2°C° 0 mm 5 mps 743 mmHg 89%
08:00 -2°C° 0 mm 5 mps 743 mmHg 90%
09:00 -2°C° 0 mm 5 mps 743 mmHg 89%
10:00 -2°C° 0 mm 5 mps 742 mmHg 89%
11:00 -2°C° 0 mm 5 mps 742 mmHg 89%
12:00 -2°C° 0 mm 5 mps 742 mmHg 89%
13:00 -2°C° 0 mm 5 mps 742 mmHg 89%
14:00 -2°C° 0 mm 4 mps 742 mmHg 90%
15:00 -2°C° 0.3 mm 4 mps 742 mmHg 92%
16:00 -2°C° 0.3 mm 4 mps 742 mmHg 95%
17:00 -2°C° 0.3 mm 4 mps 742 mmHg 97%
18:00 -2°C° 0.1 mm 4 mps 742 mmHg 97%
19:00 -1°C° 0.1 mm 4 mps 742 mmHg 97%
20:00 -1°C° 0.1 mm 4 mps 743 mmHg 97%
21:00 0°C° 0 mm 3 mps 743 mmHg 97%
22:00 0°C° 0 mm 3 mps 743 mmHg 97%
23:00 0°C° 0 mm 3 mps 743 mmHg 97%

28 November, Saturday

Time Temperature Precipitation Wind Pressure Humidity
00:00 +1°C° 0 mm 2 mps 744 mmHg 97%
01:00 +1°C° 0 mm 2 mps 744 mmHg 97%
02:00 +1°C° 0 mm 2 mps 744 mmHg 98%
03:00 +1°C° 0.1 mm 2 mps 745 mmHg 98%
04:00 +1°C° 0.1 mm 2 mps 745 mmHg 98%
05:00 +1°C° 0.1 mm 2 mps 745 mmHg 98%
06:00 +1°C° 0.1 mm 2 mps 746 mmHg 98%
07:00 +1°C° 0.1 mm 2 mps 746 mmHg 98%
08:00 +1°C° 0.1 mm 2 mps 747 mmHg 98%
09:00 +1°C° 0.1 mm 2 mps 748 mmHg 98%
10:00 +1°C° 0.1 mm 2 mps 748 mmHg 98%
11:00 +1°C° 0.1 mm 2 mps 749 mmHg 99%
12:00 +1°C° 0 mm 2 mps 749 mmHg 98%
13:00 +1°C° 0 mm 2 mps 749 mmHg 98%
14:00 +1°C° 0 mm 2 mps 750 mmHg 98%
15:00 +1°C° 0 mm 2 mps 750 mmHg 97%
16:00 +1°C° 0 mm 2 mps 751 mmHg 97%
17:00 -1°C° 0 mm 2 mps 751 mmHg 96%
18:00 +1°C° 0 mm 1 mps 752 mmHg 96%
19:00 +1°C° 0 mm 1 mps 752 mmHg 95%
20:00 0°C° 0 mm 1 mps 752 mmHg 95%
21:00 0°C° 0 mm 1 mps 753 mmHg 94%
22:00 0°C° 0 mm 1 mps 753 mmHg 93%
23:00 0°C° 0 mm 1 mps 753 mmHg 92%

29 November, Sunday

Time Temperature Precipitation Wind Pressure Humidity
00:00 0°C° 0 mm 1 mps 753 mmHg 92%
01:00 0°C° 0 mm 1 mps 753 mmHg 91%
02:00 0°C° 0 mm 1 mps 754 mmHg 91%
03:00 -2°C° 0 mm 2 mps 754 mmHg 92%
04:00 -2°C° 0 mm 2 mps 754 mmHg 93%
05:00 -1°C° 0 mm 3 mps 754 mmHg 94%
06:00 -1°C° 0.1 mm 3 mps 754 mmHg 95%
07:00 -1°C° 0.1 mm 4 mps 754 mmHg 96%
08:00 0°C° 0.1 mm 4 mps 754 mmHg 97%
09:00 0°C° 0.1 mm 4 mps 754 mmHg 97%
10:00 0°C° 0.1 mm 4 mps 754 mmHg 96%
11:00 0°C° 0.1 mm 4 mps 754 mmHg 96%
12:00 0°C° 0 mm 5 mps 754 mmHg 95%
13:00 -1°C° 0 mm 5 mps 754 mmHg 95%
14:00 -1°C° 0 mm 5 mps 754 mmHg 94%
15:00 0°C° 0 mm 5 mps 754 mmHg 94%
16:00 0°C° 0 mm 5 mps 754 mmHg 94%
17:00 0°C° 0 mm 5 mps 754 mmHg 94%
18:00 0°C° 0 mm 5 mps 754 mmHg 94%
19:00 0°C° 0 mm 5 mps 754 mmHg 94%
20:00 +1°C° 0 mm 5 mps 754 mmHg 94%
21:00 +1°C° 0 mm 5 mps 754 mmHg 94%
22:00 +1°C° 0 mm 5 mps 754 mmHg 94%
23:00 +1°C° 0 mm 6 mps 754 mmHg 93%

30 November, Monday

Time Temperature Precipitation Wind Pressure Humidity
00:00 +1°C° 0 mm 6 mps 754 mmHg 93%
01:00 -1°C° 0 mm 6 mps 754 mmHg 94%
02:00 -1°C° 0 mm 6 mps 753 mmHg 94%
03:00 -1°C° 0 mm 6 mps 753 mmHg 93%
04:00 -1°C° 0 mm 6 mps 753 mmHg 93%
05:00 -1°C° 0 mm 6 mps 753 mmHg 93%
06:00 -1°C° 0 mm 6 mps 753 mmHg 92%
07:00 -1°C° 0 mm 6 mps 753 mmHg 92%
08:00 -1°C° 0 mm 6 mps 753 mmHg 92%
09:00 -1°C° 0.1 mm 6 mps 753 mmHg 92%
10:00 -1°C° 0.1 mm 6 mps 753 mmHg 92%
11:00 -1°C° 0.1 mm 6 mps 753 mmHg 92%
12:00 +1°C° 0.2 mm 6 mps 753 mmHg 92%
13:00 +1°C° 0.2 mm 6 mps 753 mmHg 93%
14:00 +1°C° 0.2 mm 5 mps 753 mmHg 93%
15:00 +1°C° 0.2 mm 5 mps 753 mmHg 94%
16:00 +1°C° 0.2 mm 5 mps 753 mmHg 94%
17:00 +1°C° 0.2 mm 5 mps 753 mmHg 94%
18:00 +1°C° 0.3 mm 5 mps 753 mmHg 95%
19:00 +1°C° 0.3 mm 4 mps 753 mmHg 95%
20:00 0°C° 0.3 mm 4 mps 753 mmHg 96%
21:00 0°C° 0.6 mm 4 mps 753 mmHg 96%
22:00 -1°C° 0.6 mm 4 mps 754 mmHg 97%
23:00 -1°C° 0.6 mm 4 mps 754 mmHg 97%
Show more